Weather in Sukhodol

Russia / Volgograd Oblast     48°37′01″N   44°53′23″E
temp.,
°C
wind,
m/s
gust,
m/s
humid.,
%
clouds,
%
prec.,
mm/h
press.,
hPa
HPBL,
m
2 march, tue
tue200:00−2sw01670 0.0 102721
03:00−2w24690 0.0 1027158
06:00−2wsw47760 0.0 1025284
09:00−1wsw697117 0.0 1024716
12:00+3w8115867 0.0 10211047
15:00+4wsw8136174 0.0 10181297
18:00+2wsw71472100 0.0 1016669
21:00+2wsw71475100 0.0 1014837
3 march, wed
wed300:00+1wsw91493100 0.3 1011781
03:00+1w81493100 0.3 1010769
06:00+1w61097100 0.6 1009461
09:00+1nw5896100 0.9 1010523
12:00+3nw7973100 0.1 10111036
15:00+1nw7972100 0.2 10131114
18:000wnw487594 0.1 1015240
21:00−2nw5117685 0.8 1018648
4 march, thu
thu400:00−3wnw49800 0.0 1019666
03:00−3wnw497620 0.0 1021603
06:00−2wsw59770 0.0 1021368
09:00+1wsw711620 0.0 1021725
12:00+4wsw9125511 0.0 10201157
15:00+6wsw812536 0.0 10181315
18:00+2sw613670 0.0 1017305
21:00+1sw614750 0.0 1017403
5 march, fri
fri500:00+1sw715790 0.0 1016527
03:00+1sw716830 0.0 1015559
06:00+1sw7158440 0.0 1015568
09:00+3wsw8147856 0.0 1015768
12:00+6wsw8117387 0.0 1015859
15:00+7wsw7117191 0.0 1015935
18:00+5wsw5117587 0.0 1015350
21:00+4ssw597993 0.0 1016229
6 march, sat
sat600:00+4ssw51176100 0.0 1015279
03:00+3sw6138198 0.0 1015337
06:00+3sw8177395 0.0 1013518
09:00+5sw9147098 0.0 1012783
12:00+7wsw81172100 0.0 1010828
15:00+6wsw51083100 0.1 1010631
18:00+2nw6896100 1.7 1011454
21:000n6893100 2.5 1013530